Hourly Data Report for September 21, 2017

All times are specified in Local Standard Time (LST). Add 1 hour to adjust for Daylight Saving Time where and when it is observed.

WINNIPEG A CS
MANITOBA

49°55'00.000" N
97°14'58.000" W
238.70 m
502S001
71849
XWG

Download Data

Hourly Data (September 2017)
Hourly Data Report for September 21, 2017
Temp Definition
°C
Dew Point Temp Definition
°C
Rel Hum Definition
%
Wind Dir Definition
10's deg

Wind Spd Definition
km/h
Visibility Definition
km
Stn Press Definition
kPa
Hmdx Definition


Wind Chill Definition


Weather Definition


TIME
00:00 13.5 5.1 57 18 24   97.83     LegendNANA
01:00 12.7 5.5 61 18 23   97.85     LegendNANA
02:00 12.0 6.1 67 18 23   97.86     LegendNANA
03:00 11.4 6.3 71 17 23   97.85     LegendNANA
04:00 11.0 6.3 73 17 26   97.84     LegendNANA
05:00 11.5 6.5 71 17 30   97.88     LegendNANA
06:00 12.2 6.7 69 17 29   97.87     LegendNANA
07:00 13.4 7.0 65 17 31   97.85     LegendNANA
08:00 14.2 7.3 63 17 37   97.93     LegendNANA
09:00 14.9 7.8 63 18 26   97.97     LegendNANA
10:00 15.4 8.4 63 17 24   98.00     LegendNANA
11:00 15.8 9.4 66 17 22   97.99     LegendNANA
12:00 18.5 9.5 56 17 30   97.92     LegendNANA
13:00 20.3 9.2 49 17 24   97.94     LegendNANA
14:00 22.1 8.3 41 19 18   97.86     LegendNANA
15:00 24.2 7.1 33 21 17   97.81     LegendNANA
16:00 21.8 9.3 45 35 12   97.79     LegendNANA
17:00 20.1 10.2 53 1 21   97.80     LegendNANA
18:00 18.2 9.9 58 3 18   97.83     LegendNANA
19:00 16.6 10.5 67 2 17   97.90     LegendNANA
20:00 15.9 10.6 71 3 12   97.92     LegendNANA
21:00 15.2 10.9 76 36 16   97.97     LegendNANA
22:00 15.4 11.0 75 35 11   98.03     LegendNANA
23:00 13.0 10.4 84 31 11   98.06     LegendNANA

Notes on Data Quality.

Legend

  • E = Estimated
  • M = Missing
  • NA = Not Available
  • ‡ = Partner data that is not subject to review by the National Climate Archives
Date modified: